| time (UTC) | temp F | wind direction | speed MPH | gust MPH | rain 1hr in | rain 24hr in | rain mn in | humidity % | barometer mb |
| 20260904015530 | 79 | 0 | 2.0 | 4.0 | 0.00 | 0.00 | 0.00 | 39 | 1013.6 |
| 20260904015030 | 80 | 0 | 2.0 | 4.0 | 0.00 | 0.00 | 0.00 | 36 | 1013.7 |
| 20260904014532 | 80 | 0 | 3.0 | 4.0 | 0.00 | 0.00 | 0.00 | 36 | 1013.6 |
| 20260904014028 | 81 | 0 | 3.0 | 5.0 | 0.00 | 0.00 | 0.00 | 36 | 1013.5 |
| 20260904013527 | 81 | 0 | 3.0 | 5.0 | 0.00 | 0.00 | 0.00 | 35 | 1013.5 |
| 20260904013028 | 82 | 0 | 3.0 | 6.0 | 0.00 | 0.00 | 0.00 | 35 | 1013.5 |
| 20260904012526 | 83 | 0 | 3.0 | 6.0 | 0.00 | 0.00 | 0.00 | 33 | 1013.5 |
| 20260904012023 | 83 | 0 | 3.0 | 6.0 | 0.00 | 0.00 | 0.00 | 34 | 1013.6 |
| 20260904011524 | 84 | 0 | 4.0 | 8.0 | 0.00 | 0.00 | 0.00 | 32 | 1013.6 |
| 20260904011023 | 85 | 0 | 5.0 | 8.0 | 0.00 | 0.00 | 0.00 | 31 | 1013.5 |
| 20260904010522 | 85 | 0 | 5.0 | 9.0 | 0.00 | 0.00 | 0.00 | 31 | 1013.5 |
| 20260904010022 | 86 | 0 | 5.0 | 9.0 | 0.00 | 0.00 | 0.00 | 29 | 1013.5 |
| 20260904005521 | 86 | 0 | 5.0 | 8.0 | 0.00 | 0.00 | 0.00 | 29 | 1013.5 |
| 20260904005021 | 87 | 0 | 5.0 | 8.0 | 0.00 | 0.00 | 0.00 | 28 | 1013.5 |
| 20260904004520 | 87 | 0 | 5.0 | 10.0 | 0.00 | 0.00 | 0.00 | 27 | 1013.5 |
| 20260904004020 | 87 | 0 | 5.0 | 10.0 | 0.00 | 0.00 | 0.00 | 27 | 1013.5 |
| 20260904003521 | 87 | 0 | 5.0 | 8.0 | 0.00 | 0.00 | 0.00 | 27 | 1013.5 |
| 20260904003020 | 87 | 0 | 5.0 | 11.0 | 0.00 | 0.00 | 0.00 | 28 | 1013.4 |
| 20260904002520 | 87 | 0 | 6.0 | 11.0 | 0.00 | 0.00 | 0.00 | 25 | 1013.4 |
| 20260904002018 | 87 | 0 | 5.0 | 12.0 | 0.00 | 0.00 | 0.00 | 27 | 1013.4 |
| 20260904001517 | 87 | 0 | 5.0 | 12.0 | 0.00 | 0.00 | 0.00 | 26 | 1013.5 |
| 20260904001016 | 87 | 0 | 5.0 | 10.0 | 0.00 | 0.00 | 0.00 | 27 | 1013.4 |
| 20260904000516 | 87 | 0 | 5.0 | 10.0 | 0.00 | 0.00 | 0.00 | 29 | 1013.4 |
| 20260904000016 | 88 | 0 | 6.0 | 11.0 | 0.00 | 0.00 | 0.00 | 27 | 1013.4 |
| 20260903235516 | 88 | 0 | 7.0 | 11.0 | 0.00 | 0.00 | 0.00 | 25 | 1013.4 |
| 20260903235017 | 88 | 0 | 6.0 | 11.0 | 0.00 | 0.00 | 0.00 | 26 | 1013.4 |
| 20260903234515 | 88 | 0 | 6.0 | 11.0 | 0.00 | 0.00 | 0.00 | 25 | 1013.2 |
| 20260903234015 | 88 | 0 | 6.0 | 11.0 | 0.00 | 0.00 | 0.00 | 25 | 1013.4 |
| 20260903233743 | 88 | 0 | 6.0 | 14.0 | 0.00 | 0.00 | 0.00 | 26 | 1013.4 |
| 20260903233012 | 88 | 0 | 7.0 | 14.0 | 0.00 | 0.00 | 0.00 | 27 | 1013.4 |
| 20260903232745 | 88 | 0 | 7.0 | 12.0 | 0.00 | 0.00 | 0.00 | 26 | 1013.4 |
| 20260903232635 | 89 | 0 | 6.0 | 12.0 | 0.00 | 0.00 | 0.00 | 26 | 1013.4 |
| 20260903231510 | 89 | 0 | 6.0 | 12.0 | 0.00 | 0.00 | 0.00 | 25 | 1013.5 |
| 20260903231010 | 89 | 0 | 7.0 | 12.0 | 0.00 | 0.00 | 0.00 | 25 | 1013.5 |
| 20260903230511 | 89 | 0 | 7.0 | 14.0 | 0.00 | 0.00 | 0.00 | 25 | 1013.5 |
| 20260903230011 | 90 | 0 | 7.0 | 14.0 | 0.00 | 0.00 | 0.00 | 24 | 1013.5 |
| 20260903225509 | 90 | 0 | 6.0 | 12.0 | 0.00 | 0.00 | 0.00 | 23 | 1013.6 |
| 20260903225008 | 91 | 0 | 4.0 | 9.0 | 0.00 | 0.00 | 0.00 | 21 | 1013.5 |
| 20260903224508 | 91 | 0 | 2.0 | 9.0 | 0.00 | 0.00 | 0.00 | 21 | 1013.6 |
| 20260903224237 | 91 | 0 | 2.0 | 9.0 | 0.00 | 0.00 | 0.00 | 21 | 1013.6 |
| 20260903223737 | 91 | 0 | 4.0 | 10.0 | 0.00 | 0.00 | 0.00 | 22 | 1013.6 |
| 20260903223624 | 91 | 0 | 6.0 | 10.0 | 0.00 | 0.00 | 0.00 | 24 | 1013.7 |
| 20260903222508 | 91 | 0 | 6.0 | 11.0 | 0.00 | 0.00 | 0.00 | 23 | 1013.6 |
| 20260903222007 | 91 | 0 | 5.0 | 11.0 | 0.00 | 0.00 | 0.00 | 21 | 1013.7 |
| 20260903221504 | 90 | 0 | 5.0 | 10.0 | 0.00 | 0.00 | 0.00 | 22 | 1013.8 |
| 20260903221004 | 90 | 0 | 7.0 | 12.0 | 0.00 | 0.00 | 0.00 | 22 | 1013.8 |
| 20260903220504 | 90 | 0 | 7.0 | 12.0 | 0.00 | 0.00 | 0.00 | 22 | 1013.8 |
| 20260903220004 | 90 | 0 | 6.0 | 12.0 | 0.00 | 0.00 | 0.00 | 22 | 1013.8 |
| 20260903215504 | 90 | 0 | 6.0 | 12.0 | 0.00 | 0.00 | 0.00 | 24 | 1013.8 |
| 20260903215235 | 90 | 0 | 7.0 | 12.0 | 0.00 | 0.00 | 0.00 | 23 | 1013.8 |
| 20260903214501 | 90 | 0 | 7.0 | 13.0 | 0.00 | 0.00 | 0.00 | 28 | 1013.8 |
| 20260903214000 | 90 | 0 | 7.0 | 13.0 | 0.00 | 0.00 | 0.00 | 24 | 1013.8 |
| 20260903213500 | 90 | 0 | 6.0 | 11.0 | 0.00 | 0.00 | 0.00 | 26 | 1013.8 |
| 20260903213002 | 90 | 0 | 6.0 | 12.0 | 0.00 | 0.00 | 0.00 | 25 | 1013.9 |
| 20260903212500 | 90 | 0 | 7.0 | 13.0 | 0.00 | 0.00 | 0.00 | 24 | 1013.9 |
| 20260903211959 | 89 | 0 | 8.0 | 15.0 | 0.00 | 0.00 | 0.00 | 26 | 1013.9 |
| 20260903211458 | 89 | 0 | 8.0 | 17.0 | 0.00 | 0.00 | 0.00 | 26 | 1014.1 |
| 20260903210958 | 89 | 0 | 7.0 | 17.0 | 0.00 | 0.00 | 0.00 | 25 | 1014.1 |
| 20260903210458 | 89 | 0 | 7.0 | 14.0 | 0.00 | 0.00 | 0.00 | 27 | 1014.2 |
| 20260903205958 | 89 | 0 | 5.0 | 14.0 | 0.00 | 0.00 | 0.00 | 26 | 1014.3 |
| 20260903205729 | 89 | 0 | 6.0 | 13.0 | 0.00 | 0.00 | 0.00 | 26 | 1014.3 |
| 20260903204959 | 89 | 0 | 8.0 | 13.0 | 0.00 | 0.00 | 0.00 | 26 | 1014.4 |
| 20260903204459 | 89 | 0 | 7.0 | 13.0 | 0.00 | 0.00 | 0.00 | 26 | 1014.5 |
| 20260903203959 | 88 | 0 | 8.0 | 13.0 | 0.00 | 0.00 | 0.00 | 26 | 1014.4 |
| 20260903203457 | 88 | 0 | 8.0 | 14.0 | 0.00 | 0.00 | 0.00 | 26 | 1014.5 |
| 20260903203229 | 88 | 0 | 8.0 | 15.0 | 0.00 | 0.00 | 0.00 | 24 | 1014.5 |
| 20260903202001 | 88 | 0 | 9.0 | 16.0 | 0.00 | 0.00 | 0.00 | 27 | 1014.5 |
| 20260903201957 | 88 | 0 | 9.0 | 16.0 | 0.00 | 0.00 | 0.00 | 26 | 1014.5 |
| 20260903200956 | 89 | 0 | 8.0 | 16.0 | 0.00 | 0.00 | 0.00 | 26 | 1014.6 |
| 20260903200456 | 89 | 103 | 8.0 | 14.0 | 0.00 | 0.00 | 0.00 | 26 | 1014.6 |
| 20260903195956 | 89 | 0 | 7.0 | 13.0 | 0.00 | 0.00 | 0.00 | 26 | 1014.7 |
| 20260903195455 | 89 | 0 | 4.0 | 13.0 | 0.00 | 0.00 | 0.00 | 24 | 1014.9 |
| 20260903194955 | 89 | 0 | 4.0 | 9.0 | 0.00 | 0.00 | 0.00 | 28 | 1014.7 |
| 20260903194455 | 89 | 0 | 3.0 | 9.0 | 0.00 | 0.00 | 0.00 | 23 | 1014.7 |
| 20260903193955 | 89 | 0 | 2.0 | 6.0 | 0.00 | 0.00 | 0.00 | 26 | 1014.9 |
| 20260903193455 | 88 | 0 | 2.0 | 6.0 | 0.00 | 0.00 | 0.00 | 24 | 1014.9 |
| 20260903192954 | 88 | 0 | 3.0 | 8.0 | 0.00 | 0.00 | 0.00 | 24 | 1015.0 |
| 20260903192456 | 88 | 0 | 3.0 | 8.0 | 0.00 | 0.00 | 0.00 | 26 | 1015.0 |
| 20260903191954 | 88 | 0 | 2.0 | 7.0 | 0.00 | 0.00 | 0.00 | 27 | 1015.1 |
| 20260903191452 | 88 | 0 | 2.0 | 7.0 | 0.00 | 0.00 | 0.00 | 27 | 1015.2 |
| 20260903191225 | 88 | 0 | 2.0 | 7.0 | 0.00 | 0.00 | 0.00 | 27 | 1015.1 |
| 20260903190452 | 87 | 0 | 2.0 | 7.0 | 0.00 | 0.00 | 0.00 | 25 | 1015.2 |
| 20260903185953 | 87 | 0 | 3.0 | 12.0 | 0.00 | 0.00 | 0.00 | 26 | 1015.3 |
| 20260903185452 | 87 | 0 | 4.0 | 12.0 | 0.00 | 0.00 | 0.00 | 26 | 1015.4 |
| 20260903184954 | 87 | 0 | 3.0 | 10.0 | 0.00 | 0.00 | 0.00 | 24 | 1015.6 |
| 20260903184454 | 87 | 0 | 2.0 | 7.0 | 0.00 | 0.00 | 0.00 | 36 | 1015.6 |
| 20260903183953 | 87 | 0 | 3.0 | 9.0 | 0.00 | 0.00 | 0.00 | 35 | 1015.6 |
| 20260903183452 | 87 | 0 | 5.0 | 13.0 | 0.00 | 0.00 | 0.00 | 29 | 1015.7 |
| 20260903182952 | 87 | 0 | 6.0 | 13.0 | 0.00 | 0.00 | 0.00 | 26 | 1015.8 |
| 20260903182450 | 86 | 0 | 5.0 | 12.0 | 0.00 | 0.00 | 0.00 | 27 | 1015.9 |
| 20260903181951 | 87 | 0 | 4.0 | 12.0 | 0.00 | 0.00 | 0.00 | 25 | 1016.0 |
| 20260903181451 | 87 | 0 | 3.0 | 10.0 | 0.00 | 0.00 | 0.00 | 30 | 1016.0 |
| 20260903180953 | 86 | 0 | 3.0 | 5.0 | 0.00 | 0.00 | 0.00 | 34 | 1016.1 |
| 20260903180450 | 85 | 0 | 3.0 | 6.0 | 0.00 | 0.00 | 0.00 | 32 | 1016.2 |
| 20260903175950 | 85 | 0 | 1.0 | 6.0 | 0.00 | 0.00 | 0.00 | 33 | 1016.2 |
| 20260903175719 | 85 | 0 | 2.0 | 6.0 | 0.00 | 0.00 | 0.00 | 35 | 1016.4 |
| 20260903174949 | 85 | 0 | 2.0 | 7.0 | 0.00 | 0.00 | 0.00 | 33 | 1016.4 |
| 20260903174448 | 84 | 0 | 3.0 | 7.0 | 0.00 | 0.00 | 0.00 | 36 | 1016.5 |
| 20260903174219 | 84 | 0 | 4.0 | 7.0 | 0.00 | 0.00 | 0.00 | 33 | 1016.6 |
| 20260903173449 | 84 | 0 | 3.0 | 7.0 | 0.00 | 0.00 | 0.00 | 33 | 1016.6 |
| 20260903173219 | 83 | 0 | 3.0 | 6.0 | 0.00 | 0.00 | 0.00 | 32 | 1016.6 |
| 20260903172449 | 83 | 0 | 4.0 | 8.0 | 0.00 | 0.00 | 0.00 | 35 | 1016.5 |
| 20260903171948 | 83 | 0 | 4.0 | 10.0 | 0.00 | 0.00 | 0.00 | 37 | 1016.6 |
| 20260903171448 | 83 | 0 | 4.0 | 10.0 | 0.00 | 0.00 | 0.00 | 35 | 1016.6 |
| 20260903170949 | 82 | 0 | 3.0 | 9.0 | 0.00 | 0.00 | 0.00 | 39 | 1016.6 |
| 20260903170446 | 82 | 0 | 3.0 | 7.0 | 0.00 | 0.00 | 0.00 | 40 | 1016.6 |
| 20260903165947 | 81 | 0 | 3.0 | 7.0 | 0.00 | 0.00 | 0.00 | 39 | 1016.6 |
| 20260903165446 | 80 | 0 | 2.0 | 7.0 | 0.00 | 0.00 | 0.00 | 43 | 1016.6 |
| 20260903164946 | 80 | 0 | 2.0 | 5.0 | 0.00 | 0.00 | 0.00 | 49 | 1016.7 |
| 20260903164719 | 79 | 0 | 2.0 | 6.0 | 0.00 | 0.00 | 0.00 | 46 | 1016.7 |
| 20260903163947 | 78 | 0 | 3.0 | 8.0 | 0.00 | 0.00 | 0.00 | 47 | 1016.7 |
| 20260903163717 | 78 | 0 | 4.0 | 8.0 | 0.00 | 0.00 | 0.00 | 47 | 1016.7 |
| 20260903162946 | 78 | 0 | 5.0 | 8.0 | 0.00 | 0.00 | 0.00 | 47 | 1016.6 |
| 20260903162718 | 78 | 0 | 4.0 | 8.0 | 0.00 | 0.00 | 0.00 | 47 | 1016.6 |
| 20260903162216 | 78 | 0 | 3.0 | 5.0 | 0.00 | 0.00 | 0.00 | 48 | 1016.7 |
| 20260903161447 | 78 | 0 | 2.0 | 5.0 | 0.00 | 0.00 | 0.00 | 48 | 1016.7 |
| 20260903160946 | 77 | 0 | 3.0 | 6.0 | 0.00 | 0.00 | 0.00 | 50 | 1016.6 |
| 20260903160446 | 77 | 0 | 3.0 | 6.0 | 0.00 | 0.00 | 0.00 | 52 | 1016.6 |
| 20260903155945 | 76 | 0 | 3.0 | 6.0 | 0.00 | 0.00 | 0.00 | 53 | 1016.6 |
| 20260903155716 | 76 | 0 | 3.0 | 6.0 | 0.00 | 0.00 | 0.00 | 53 | 1016.6 |
| 20260903154944 | 75 | 0 | 3.0 | 5.0 | 0.00 | 0.00 | 0.00 | 54 | 1016.6 |
| 20260903154718 | 74 | 144 | 3.0 | 7.0 | 0.00 | 0.00 | 0.00 | 55 | 1016.7 |
| 20260903153943 | 74 | 0 | 3.0 | 7.0 | 0.00 | 0.00 | 0.00 | 54 | 1016.7 |
| 20260903153444 | 73 | 0 | 3.0 | 6.0 | 0.00 | 0.00 | 0.00 | 58 | 1016.6 |
| 20260903152942 | 72 | 0 | 2.0 | 6.0 | 0.00 | 0.00 | 0.00 | 58 | 1016.6 |
| 20260903152443 | 71 | 0 | 1.0 | 5.0 | 0.00 | 0.00 | 0.00 | 58 | 1016.6 |
| 20260903151942 | 71 | 0 | 0.0 | 3.0 | 0.00 | 0.00 | 0.00 | 61 | 1016.7 |
| 20260903151441 | 69 | 0 | 0.0 | 2.0 | 0.00 | 0.00 | 0.00 | 64 | 1016.8 |
| 20260903150946 | 67 | 0 | 1.0 | 4.0 | 0.00 | 0.00 | 0.00 | 67 | 1016.8 |
| 20260903150941 | 69 | 0 | 1.0 | 3.0 | 0.00 | 0.00 | 0.00 | 63 | 1016.9 |
| 20260903150211 | 67 | 0 | 1.0 | 5.0 | 0.00 | 0.00 | 0.00 | 64 | 1016.7 |
| 20260903145441 | 66 | 0 | 3.0 | 6.0 | 0.00 | 0.00 | 0.00 | 68 | 1016.8 |
| 20260903145212 | 65 | 0 | 2.0 | 6.0 | 0.00 | 0.00 | 0.00 | 70 | 1016.7 |
| 20260903144440 | 64 | 0 | 3.0 | 8.0 | 0.00 | 0.00 | 0.00 | 69 | 1016.8 |
| 20260903143942 | 64 | 0 | 5.0 | 12.0 | 0.00 | 0.00 | 0.00 | 71 | 1016.7 |
| 20260903143712 | 63 | 0 | 3.0 | 12.0 | 0.00 | 0.00 | 0.00 | 75 | 1017.1 |
| 20260903142941 | 62 | 0 | 2.0 | 9.0 | 0.00 | 0.00 | 0.00 | 73 | 1016.5 |
| 20260903142442 | 62 | 0 | 2.0 | 9.0 | 0.00 | 0.00 | 0.00 | 77 | 1016.7 |
| 20260903142212 | 61 | 0 | 1.0 | 7.0 | 0.00 | 0.00 | 0.00 | 79 | 1016.7 |
| 20260903141441 | 60 | 0 | 0.0 | 2.0 | 0.00 | 0.00 | 0.00 | 80 | 1016.6 |
| 20260903140939 | 59 | 0 | 0.0 | 2.0 | 0.00 | 0.00 | 0.00 | 81 | 1016.7 |
| 20260903140440 | 59 | 0 | 0.0 | 2.0 | 0.00 | 0.00 | 0.00 | 81 | 1016.6 |
| 20260903135939 | 59 | 0 | 0.0 | 2.0 | 0.00 | 0.00 | 0.00 | 82 | 1016.6 |
| 20260903135440 | 58 | 0 | 0.0 | 2.0 | 0.00 | 0.00 | 0.00 | 83 | 1016.8 |
| 20260903134938 | 58 | 0 | 0.0 | 1.0 | 0.00 | 0.00 | 0.00 | 81 | 1016.7 |
| 20260903134435 | 57 | 0 | 0.0 | 2.0 | 0.00 | 0.00 | 0.00 | 82 | 1016.8 |
| 20260903133934 | 57 | 0 | 1.0 | 5.0 | 0.00 | 0.00 | 0.00 | 82 | 1016.6 |
| 20260903133435 | 57 | 0 | 1.0 | 5.0 | 0.00 | 0.00 | 0.00 | 82 | 1016.8 |
| 20260903132936 | 57 | 0 | 1.0 | 2.0 | 0.00 | 0.00 | 0.00 | 84 | 1016.7 |
| 20260903132434 | 56 | 255 | 0.0 | 2.0 | 0.00 | 0.00 | 0.00 | 84 | 1016.2 |
| 20260903131934 | 56 | 0 | 0.0 | 1.0 | 0.00 | 0.00 | 0.00 | 84 | 1016.4 |
| 20260903131435 | 56 | 259 | 1.0 | 3.0 | 0.00 | 0.00 | 0.00 | 84 | 1016.5 |
| 20260903130936 | 56 | 259 | 1.0 | 3.0 | 0.00 | 0.00 | 0.00 | 85 | 1016.4 |
| 20260903130434 | 56 | 0 | 1.0 | 3.0 | 0.00 | 0.00 | 0.00 | 86 | 1016.2 |
| 20260903130205 | 56 | 0 | 0.0 | 2.0 | 0.00 | 0.00 | 0.00 | 85 | 1016.1 |
| 20260903125435 | 56 | 11 | 0.0 | 2.0 | 0.00 | 0.00 | 0.00 | 86 | 1016.1 |
| 20260903124934 | 56 | 13 | 0.0 | 2.0 | 0.00 | 0.00 | 0.00 | 86 | 1016.4 |
| 20260903124431 | 56 | 0 | 0.0 | 2.0 | 0.00 | 0.00 | 0.00 | 87 | 1016.1 |
| 20260903123932 | 56 | 0 | 0.0 | 2.0 | 0.00 | 0.00 | 0.00 | 87 | 1016.0 |
| 20260903123430 | 56 | 0 | 0.0 | 1.0 | 0.00 | 0.00 | 0.00 | 86 | 1015.7 |
| 20260903122930 | 56 | 0 | 0.0 | 2.0 | 0.00 | 0.00 | 0.00 | 86 | 1015.8 |
| 20260903122432 | 56 | 0 | 1.0 | 2.0 | 0.00 | 0.00 | 0.00 | 86 | 1016.0 |
| 20260903121931 | 56 | 0 | 1.0 | 2.0 | 0.00 | 0.00 | 0.00 | 86 | 1015.8 |
| 20260903121431 | 56 | 0 | 1.0 | 5.0 | 0.00 | 0.00 | 0.00 | 86 | 1015.8 |
| 20260903120932 | 56 | 0 | 1.0 | 5.0 | 0.00 | 0.00 | 0.00 | 86 | 1015.8 |
| 20260903120431 | 56 | 0 | 1.0 | 3.0 | 0.00 | 0.00 | 0.00 | 86 | 1015.8 |
| 20260903115931 | 56 | 0 | 0.0 | 2.0 | 0.00 | 0.00 | 0.00 | 86 | 1015.8 |
| 20260903115432 | 56 | 0 | 1.0 | 2.0 | 0.00 | 0.00 | 0.00 | 86 | 1015.7 |
| 20260903114931 | 56 | 283 | 1.0 | 2.0 | 0.00 | 0.00 | 0.00 | 87 | 1015.9 |
| 20260903114432 | 56 | 0 | 1.0 | 4.0 | 0.00 | 0.00 | 0.00 | 87 | 1015.7 |
| 20260903113932 | 56 | 257 | 1.0 | 4.0 | 0.00 | 0.00 | 0.00 | 88 | 1016.0 |
| 20260903113430 | 56 | 0 | 1.0 | 3.0 | 0.00 | 0.00 | 0.00 | 87 | 1015.8 |
| 20260903112931 | 56 | 0 | 0.0 | 1.0 | 0.00 | 0.00 | 0.00 | 88 | 1015.7 |
| 20260903112430 | 56 | 0 | 0.0 | 2.0 | 0.00 | 0.00 | 0.00 | 87 | 1015.8 |
| 20260903112202 | 56 | 0 | 0.0 | 2.0 | 0.00 | 0.00 | 0.00 | 87 | 1015.6 |
| 20260903111703 | 56 | 0 | 0.0 | 1.0 | 0.00 | 0.00 | 0.00 | 87 | 1015.4 |
| 20260903110930 | 56 | 0 | 0.0 | 1.0 | 0.00 | 0.00 | 0.00 | 87 | 1015.6 |
| 20260903110432 | 56 | 0 | 0.0 | 1.0 | 0.00 | 0.00 | 0.00 | 86 | 1015.4 |
| 20260903105930 | 56 | 0 | 0.0 | 0.0 | 0.00 | 0.00 | 0.00 | 86 | 1015.7 |
| 20260903105430 | 56 | 0 | 0.0 | 0.0 | 0.00 | 0.00 | 0.00 | 86 | 1015.7 |
| 20260903104930 | 57 | 0 | 0.0 | 0.0 | 0.00 | 0.00 | 0.00 | 85 | 1015.6 |
| 20260903104431 | 57 | 0 | 0.0 | 1.0 | 0.00 | 0.00 | 0.00 | 85 | 1015.6 |
| 20260903104202 | 57 | 0 | 0.0 | 2.0 | 0.00 | 0.00 | 0.00 | 85 | 1015.6 |
| 20260903103430 | 57 | 0 | 0.0 | 2.0 | 0.00 | 0.00 | 0.00 | 86 | 1015.7 |
| 20260903102931 | 57 | 0 | 0.0 | 2.0 | 0.00 | 0.00 | 0.00 | 86 | 1015.8 |
| 20260903102431 | 58 | 0 | 0.0 | 1.0 | 0.00 | 0.00 | 0.00 | 86 | 1015.6 |
| 20260903101931 | 58 | 0 | 0.0 | 1.0 | 0.00 | 0.00 | 0.00 | 85 | 1015.8 |
| 20260903101703 | 58 | 0 | 0.0 | 1.0 | 0.00 | 0.00 | 0.00 | 85 | 1015.9 |
| 20260903100930 | 58 | 0 | 0.0 | 1.0 | 0.00 | 0.00 | 0.00 | 85 | 1015.8 |
| 20260903100431 | 58 | 0 | 0.0 | 1.0 | 0.00 | 0.00 | 0.00 | 84 | 1015.9 |
| 20260903095930 | 58 | 0 | 0.0 | 1.0 | 0.00 | 0.00 | 0.00 | 84 | 1016.0 |
| 20260903095431 | 58 | 0 | 0.0 | 1.0 | 0.00 | 0.00 | 0.00 | 83 | 1016.0 |
| 20260903094931 | 58 | 0 | 0.0 | 1.0 | 0.00 | 0.00 | 0.00 | 84 | 1016.1 |
| 20260903094431 | 58 | 0 | 0.0 | 0.0 | 0.00 | 0.00 | 0.00 | 83 | 1015.9 |
| 20260903093931 | 58 | 0 | 0.0 | 1.0 | 0.00 | 0.00 | 0.00 | 82 | 1016.0 |
| 20260903093431 | 59 | 0 | 0.0 | 1.0 | 0.00 | 0.00 | 0.00 | 82 | 1016.0 |
| 20260903092930 | 59 | 0 | 0.0 | 2.0 | 0.00 | 0.00 | 0.00 | 82 | 1016.0 |
| 20260903092432 | 59 | 0 | 0.0 | 2.0 | 0.00 | 0.00 | 0.00 | 82 | 1016.1 |
| 20260903091930 | 59 | 0 | 0.0 | 2.0 | 0.00 | 0.00 | 0.00 | 81 | 1016.0 |
| 20260903091432 | 59 | 0 | 1.0 | 2.0 | 0.00 | 0.00 | 0.00 | 81 | 1016.1 |
| 20260903090931 | 59 | 0 | 0.0 | 2.0 | 0.00 | 0.00 | 0.00 | 82 | 1016.2 |
| 20260903090431 | 60 | 0 | 0.0 | 0.0 | 0.00 | 0.00 | 0.00 | 81 | 1016.1 |
| 20260903085930 | 60 | 0 | 0.0 | 0.0 | 0.00 | 0.00 | 0.00 | 81 | 1016.0 |
| 20260903085431 | 60 | 0 | 0.0 | 0.0 | 0.00 | 0.00 | 0.00 | 80 | 1015.9 |
| 20260903084932 | 60 | 0 | 0.0 | 0.0 | 0.00 | 0.00 | 0.00 | 80 | 1016.0 |
| 20260903084431 | 60 | 0 | 0.0 | 1.0 | 0.00 | 0.00 | 0.00 | 80 | 1015.9 |
| 20260903083932 | 60 | 0 | 0.0 | 1.0 | 0.00 | 0.00 | 0.00 | 80 | 1016.0 |
| 20260903083432 | 60 | 0 | 0.0 | 1.0 | 0.00 | 0.00 | 0.00 | 80 | 1016.0 |
| 20260903082931 | 60 | 0 | 0.0 | 0.0 | 0.00 | 0.00 | 0.00 | 79 | 1016.0 |
| 20260903082431 | 60 | 0 | 0.0 | 1.0 | 0.00 | 0.00 | 0.00 | 79 | 1016.1 |
| 20260903082203 | 60 | 0 | 0.0 | 1.0 | 0.00 | 0.00 | 0.00 | 79 | 1016.1 |
| 20260903081430 | 61 | 0 | 0.0 | 1.0 | 0.00 | 0.00 | 0.00 | 79 | 1016.1 |
| 20260903080930 | 61 | 0 | 0.0 | 2.0 | 0.00 | 0.00 | 0.00 | 78 | 1016.1 |
| 20260903080702 | 61 | 0 | 0.0 | 2.0 | 0.00 | 0.00 | 0.00 | 79 | 1016.0 |
| 20260903075931 | 61 | 0 | 0.0 | 0.0 | 0.00 | 0.00 | 0.00 | 79 | 1015.9 |
| 20260903075432 | 61 | 0 | 0.0 | 1.0 | 0.00 | 0.00 | 0.00 | 78 | 1015.9 |
| 20260903074930 | 62 | 0 | 0.0 | 1.0 | 0.00 | 0.00 | 0.00 | 78 | 1015.9 |
| 20260903074437 | 62 | 0 | 0.0 | 0.0 | 0.00 | 0.00 | 0.00 | 76 | 1015.9 |
| 20260903074431 | 62 | 0 | 0.0 | 0.0 | 0.00 | 0.00 | 0.00 | 78 | 1015.9 |
| 20260903073931 | 62 | 0 | 0.0 | 0.0 | 0.00 | 0.00 | 0.00 | 75 | 1015.9 |
| 20260903072931 | 63 | 0 | 0.0 | 0.0 | 0.00 | 0.00 | 0.00 | 76 | 1016.1 |
| 20260903072431 | 63 | 0 | 0.0 | 0.0 | 0.00 | 0.00 | 0.00 | 74 | 1016.0 |
| 20260903072201 | 63 | 0 | 0.0 | 0.0 | 0.00 | 0.00 | 0.00 | 74 | 1016.0 |
| 20260903071432 | 63 | 0 | 0.0 | 1.0 | 0.00 | 0.00 | 0.00 | 73 | 1016.0 |
| 20260903070930 | 64 | 0 | 0.0 | 2.0 | 0.00 | 0.00 | 0.00 | 72 | 1016.0 |
| 20260903070431 | 64 | 0 | 1.0 | 2.0 | 0.00 | 0.00 | 0.00 | 73 | 1015.9 |
| 20260903065931 | 64 | 0 | 1.0 | 2.0 | 0.00 | 0.00 | 0.00 | 73 | 1015.9 |
| 20260903065430 | 64 | 0 | 1.0 | 2.0 | 0.00 | 0.00 | 0.00 | 74 | 1015.9 |
| 20260903064932 | 64 | 0 | 0.0 | 2.0 | 0.00 | 0.00 | 0.00 | 74 | 1015.9 |
| 20260903064436 | 65 | 0 | 0.0 | 1.0 | 0.00 | 0.00 | 0.00 | 70 | 1016.0 |
| 20260903064431 | 65 | 0 | 0.0 | 1.0 | 0.00 | 0.00 | 0.00 | 70 | 1016.0 |
| 20260903063432 | 65 | 0 | 0.0 | 2.0 | 0.00 | 0.00 | 0.00 | 70 | 1015.9 |
| 20260903062928 | 65 | 0 | 1.0 | 2.0 | 0.00 | 0.00 | 0.00 | 70 | 1015.9 |
| 20260903062430 | 65 | 0 | 1.0 | 3.0 | 0.00 | 0.00 | 0.00 | 71 | 1015.8 |
| 20260903061928 | 65 | 0 | 1.0 | 3.0 | 0.00 | 0.00 | 0.00 | 70 | 1015.8 |
| 20260903061429 | 65 | 0 | 1.0 | 2.0 | 0.00 | 0.00 | 0.00 | 70 | 1015.8 |
| 20260903060930 | 65 | 0 | 1.0 | 4.0 | 0.00 | 0.00 | 0.00 | 69 | 1015.8 |
| 20260903060700 | 65 | 0 | 1.0 | 4.0 | 0.00 | 0.00 | 0.00 | 69 | 1015.9 |
| 20260903055934 | 66 | 0 | 2.0 | 3.0 | 0.00 | 0.00 | 0.00 | 71 | 1016.0 |
| 20260903055930 | 66 | 0 | 1.0 | 3.0 | 0.00 | 0.00 | 0.00 | 70 | 1016.0 |
| 20260903054927 | 66 | 0 | 2.0 | 4.0 | 0.00 | 0.00 | 0.00 | 72 | 1016.0 |
| 20260903054427 | 66 | 0 | 1.0 | 4.0 | 0.00 | 0.00 | 0.00 | 70 | 1016.2 |
| 20260903053927 | 66 | 0 | 1.0 | 3.0 | 0.00 | 0.00 | 0.00 | 70 | 1016.2 |
| 20260903053426 | 66 | 0 | 2.0 | 5.0 | 0.00 | 0.00 | 0.00 | 70 | 1016.4 |
| 20260903052924 | 66 | 0 | 3.0 | 5.0 | 0.00 | 0.00 | 0.00 | 70 | 1016.4 |
| 20260903052430 | 66 | 0 | 3.0 | 5.0 | 0.00 | 0.00 | 0.00 | 69 | 1016.4 |
| 20260903052424 | 66 | 0 | 2.0 | 4.0 | 0.00 | 0.00 | 0.00 | 70 | 1016.4 |
| 20260903051424 | 66 | 0 | 2.0 | 5.0 | 0.00 | 0.00 | 0.00 | 69 | 1016.4 |
| 20260903051153 | 66 | 0 | 1.0 | 4.0 | 0.00 | 0.00 | 0.00 | 69 | 1016.4 |
| 20260903050421 | 67 | 0 | 2.0 | 5.0 | 0.00 | 0.00 | 0.00 | 69 | 1016.5 |
| 20260903050152 | 67 | 0 | 3.0 | 6.0 | 0.00 | 0.00 | 0.00 | 67 | 1016.4 |
| 20260903045420 | 67 | 0 | 2.0 | 6.0 | 0.00 | 0.00 | 0.00 | 65 | 1016.5 |
| 20260903044919 | 67 | 0 | 1.0 | 5.0 | 0.00 | 0.00 | 0.00 | 66 | 1016.5 |
| 20260903044418 | 67 | 0 | 2.0 | 5.0 | 0.00 | 0.00 | 0.00 | 66 | 1016.1 |
| 20260903044149 | 67 | 0 | 3.0 | 5.0 | 0.00 | 0.00 | 0.00 | 68 | 1015.9 |
| 20260903043419 | 67 | 0 | 2.0 | 5.0 | 0.00 | 0.00 | 0.00 | 66 | 1016.0 |
| 20260903043151 | 67 | 0 | 1.0 | 4.0 | 0.00 | 0.00 | 0.00 | 68 | 1016.1 |
| 20260903042416 | 67 | 0 | 0.0 | 3.0 | 0.00 | 0.00 | 0.00 | 64 | 1016.4 |
| 20260903041915 | 67 | 0 | 0.0 | 3.0 | 0.00 | 0.00 | 0.00 | 63 | 1016.2 |
| 20260903041414 | 68 | 0 | 0.0 | 3.0 | 0.00 | 0.00 | 0.00 | 63 | 1016.2 |
| 20260903040914 | 68 | 0 | 1.0 | 4.0 | 0.00 | 0.00 | 0.00 | 63 | 1016.2 |
| 20260903040412 | 68 | 0 | 1.0 | 5.0 | 0.00 | 0.00 | 0.00 | 63 | 1016.1 |
| 20260903035909 | 68 | 0 | 1.0 | 5.0 | 0.00 | 0.00 | 0.00 | 63 | 1016.2 |
| 20260903035409 | 68 | 0 | 0.0 | 0.0 | 0.00 | 0.00 | 0.00 | 62 | 1016.0 |
| 20260903034909 | 68 | 0 | 0.0 | 0.0 | 0.00 | 0.00 | 0.00 | 62 | 1016.0 |
| 20260903034409 | 68 | 0 | 0.0 | 0.0 | 0.00 | 0.00 | 0.00 | 63 | 1016.0 |
| 20260903033907 | 68 | 0 | 0.0 | 0.0 | 0.00 | 0.00 | 0.00 | 63 | 1016.0 |
| 20260903033407 | 69 | 0 | 0.0 | 0.0 | 0.00 | 0.00 | 0.00 | 62 | 1016.0 |
| 20260903033138 | 69 | 0 | 0.0 | 0.0 | 0.00 | 0.00 | 0.00 | 60 | 1016.0 |
| 20260903032406 | 69 | 0 | 0.0 | 5.0 | 0.00 | 0.00 | 0.00 | 60 | 1016.0 |
| 20260903032137 | 69 | 0 | 0.0 | 5.0 | 0.00 | 0.00 | 0.00 | 60 | 1016.1 |
| 20260903031406 | 69 | 0 | 2.0 | 6.0 | 0.00 | 0.00 | 0.00 | 60 | 1016.1 |
| 20260903031138 | 69 | 0 | 4.0 | 7.0 | 0.00 | 0.00 | 0.00 | 60 | 1016.0 |
| 20260903030406 | 69 | 0 | 4.0 | 7.0 | 0.00 | 0.00 | 0.00 | 61 | 1015.7 |
| 20260903030138 | 70 | 0 | 2.0 | 6.0 | 0.00 | 0.00 | 0.00 | 61 | 1015.8 |
| 20260903025407 | 70 | 0 | 1.0 | 5.0 | 0.00 | 0.00 | 0.00 | 58 | 1015.6 |
| 20260903024906 | 70 | 0 | 2.0 | 6.0 | 0.00 | 0.00 | 0.00 | 58 | 1015.7 |
| 20260903024405 | 70 | 0 | 2.0 | 6.0 | 0.00 | 0.00 | 0.00 | 59 | 1015.7 |
| 20260903023904 | 70 | 0 | 0.0 | 3.0 | 0.00 | 0.00 | 0.00 | 58 | 1015.8 |
| 20260903023404 | 70 | 0 | 1.0 | 5.0 | 0.00 | 0.00 | 0.00 | 58 | 1016.0 |
| 20260903022904 | 70 | 0 | 3.0 | 5.0 | 0.00 | 0.00 | 0.00 | 58 | 1016.0 |
| 20260903022404 | 70 | 0 | 2.0 | 5.0 | 0.00 | 0.00 | 0.00 | 56 | 1015.8 |
| 20260903021904 | 71 | 0 | 1.0 | 3.0 | 0.00 | 0.00 | 0.00 | 59 | 1015.9 |
| 20260903021405 | 71 | 0 | 0.0 | 2.0 | 0.00 | 0.00 | 0.00 | 56 | 1015.9 |
| 20260903020902 | 71 | 0 | 0.0 | 4.0 | 0.00 | 0.00 | 0.00 | 54 | 1015.9 |
| 20260903020402 | 71 | 0 | 2.0 | 4.0 | 0.00 | 0.00 | 0.00 | 55 | 1015.8 |
| 20260903015902 | 71 | 0 | 3.0 | 4.0 | 0.00 | 0.00 | 0.00 | 55 | 1015.8 |